Location: Unspecified
(48.5539°N, 71.6350°W)
Time: 19:28:44
(UTC-05:00)

ISS - All Passes

Search period start: 23 January 2019 00:00
Search period end: 02 February 2019 00:00
Orbit: 404 x 410 km, 51.6° (Epoch: 24 January)

Date Brightness Start Highest point End Pass type
(mag) Time Alt. Az. Time Alt. Az. Time Alt. Az.
23 Jan - 00:31:36 10° WNW 00:34:42 37° SSW 00:37:47 10° SE night (unlit)
23 Jan - 18:50:15 10° SW 18:53:26 46° SSE 18:56:38 10° ENE visible
23 Jan - 20:26:42 10° W 20:29:58 56° NNW 20:33:15 10° ENE visible
23 Jan - 22:03:33 10° WNW 22:06:49 52° N 22:10:04 10° E night (unlit)
23 Jan - 23:40:09 10° WNW 23:43:26 58° SSW 23:46:42 10° SE night (unlit)
24 Jan - 01:18:11 10° WSW 01:19:24 12° SW 01:20:38 10° SSW night (unlit)
24 Jan - 17:59:16 10° SSW 18:02:11 29° SE 18:05:06 10° E visible
24 Jan - 19:35:15 10° WSW 19:38:33 71° NNW 19:41:52 10° ENE visible
24 Jan - 21:12:08 10° WNW 21:15:21 47° N 21:18:35 10° E night (unlit)
24 Jan - 22:48:46 10° WNW 22:52:06 86° SSW 22:55:25 10° ESE night (unlit)
25 Jan - 00:25:51 10° W 00:28:17 19° SW 00:30:42 10° S night (unlit)
25 Jan - 17:08:37 10° S 17:10:59 18° SE 17:13:21 10° E visible
25 Jan - 18:43:51 10° WSW 18:47:09 85° SSE 18:50:29 10° ENE visible
25 Jan - 20:20:39 10° W 20:23:53 47° N 20:27:07 10° ENE visible
25 Jan - 21:57:23 10° WNW 22:00:42 70° NNE 22:04:00 10° ESE night (unlit)
25 Jan - 23:34:07 10° W 23:37:04 30° SW 23:40:01 10° SSE night (unlit)
26 Jan - 16:18:46 10° SSE 16:19:50 11° SE 16:20:55 10° ESE daylight
26 Jan - 17:52:33 10° SW 17:55:47 57° SSE 17:59:03 10° ENE visible
26 Jan - 19:29:09 10° W 19:32:24 52° N 19:35:40 10° ENE visible
26 Jan - 21:05:58 10° WNW 21:09:15 55° NNE 21:12:31 10° E night (unlit)
26 Jan - 22:42:35 10° WNW 22:45:48 47° SSW 22:48:59 10° SE night (unlit)
27 Jan - 17:01:26 10° SW 17:04:29 36° SSE 17:07:33 10° ENE daylight
27 Jan - 18:37:39 10° W 18:40:56 63° NNW 18:44:14 10° ENE visible
27 Jan - 20:14:32 10° WNW 20:17:46 48° N 20:21:00 10° E visible
27 Jan - 21:51:07 10° WNW 21:54:26 73° SSW 21:57:45 10° ESE night (unlit)
27 Jan - 23:28:31 10° W 23:30:32 15° SW 23:32:32 10° S night (unlit)
28 Jan - 16:10:34 10° SSW 16:13:14 23° SE 16:15:53 10° E daylight
28 Jan - 17:46:11 10° WSW 17:49:29 83° NNW 17:52:48 10° ENE visible
28 Jan - 19:23:02 10° WNW 19:26:15 46° N 19:29:28 10° ENE visible
28 Jan - 20:59:42 10° WNW 21:03:02 80° NNE 21:06:21 10° ESE night (unlit)
28 Jan - 22:36:34 10° W 22:39:19 24° SW 22:42:04 10° SSE night (unlit)
29 Jan - 15:20:11 10° S 15:22:01 14° SE 15:23:51 10° ESE daylight
29 Jan - 16:54:47 10° WSW 16:58:04 69° SSE 17:01:21 10° ENE daylight
29 Jan - 18:31:30 10° W 18:34:43 49° N 18:37:58 10° ENE visible
29 Jan - 20:08:16 10° WNW 20:11:34 61° NNE 20:14:51 10° E visible
29 Jan - 21:44:55 10° WNW 21:48:02 38° SSW 21:51:08 10° SE night (unlit)
30 Jan - 16:03:32 10° SW 16:06:42 44° SSE 16:09:52 10° ENE daylight
30 Jan - 17:39:57 10° W 17:43:12 57° NNW 17:46:30 10° ENE visible
30 Jan - 19:16:48 10° WNW 19:20:03 51° N 19:23:18 10° E visible
30 Jan - 20:53:23 10° WNW 20:56:40 60° SSW 20:59:56 10° SE night (unlit)
30 Jan - 22:31:16 10° WSW 22:32:40 12° SW 22:34:02 10° SSW night (unlit)
31 Jan - 15:12:30 10° SSW 15:15:22 28° SE 15:18:15 10° E daylight
31 Jan - 16:48:25 10° WSW 16:51:42 72° NNW 16:55:01 10° ENE daylight
31 Jan - 18:25:18 10° WNW 18:28:31 47° N 18:31:44 10° ENE visible
31 Jan - 20:01:55 10° WNW 20:05:15 88° SSW 20:08:33 10° ESE visible
31 Jan - 21:38:57 10° W 21:41:27 20° SW 21:43:55 10° S night (unlit)
01 Feb - 14:21:49 10° S 14:24:06 18° SE 14:26:23 10° E daylight
01 Feb - 15:56:56 10° WSW 16:00:14 82° SSE 16:03:33 10° ENE daylight
01 Feb - 17:33:44 10° W 17:36:57 47° N 17:40:10 10° ENE visible
01 Feb - 19:10:27 10° WNW 19:13:46 68° NNE 19:17:04 10° E visible
01 Feb - 20:47:10 10° W 20:50:09 31° SW 20:53:07 10° SSE visible
